Tracking 30995 objects as of 5-Jul-2025
HD Live streaming from Space Station
objects crossing your sky now

DELTA 1 DEB

Track DELTA 1 DEB now!
10-day predictions


NORAD ID: 21501
Int'l Code: 1975-052FW
Perigee: 1,051.0 km
Apogee: 1,911.9 km
Inclination: 99.8 °
Period: 115.4 minutes
Semi major axis: 7852 km
RCS: 0.0598 m2 (small)
Launch date: June 12, 1975
Source: United States (US)
Launch site: AIR FORCE WESTERN TEST RANGE (AFWTR)

Note: This is SATELLITE DEBRIS
Your satellite tracking list
Your tracking list is empty




NASA's NSSDC Master Catalog

Two Line Element Set (TLE):
1 21501U 75052FW  25180.37420030  .00000062  00000-0  37788-3 0  9997
2 21501  99.7921 133.1142 0548193 204.6945 312.4640 12.47658452553358
Source of the keplerian elements: AFSPC